Wind_Speed
49 50 51 53 54 56 57 58 59 59 59 60 63 68 74 79 84 89 92 96 99 100 101 103 104 106 107 109 110 111 112 113 114 115 116 117 118 119 120 120 121 121 122 122 123 123 124 125 125 126 126 127 128 128 129 130 130 131 132 132 133 134 135 135 136 137 138 138 139 140 141 142 143 144 145 146 147 148 150 151 152 153 154 155 156 156
41 42 43 45 47 49 50 52 53 54 55 55 56 58 61 65 69 74 79 85 89 92 95 98 100 102 104 105 106 107 108 109 110 110 111 111 111 111 112 112 113 113 113 113 114 115 115 116 117 117 118 118 119 120 121 122 123 123 124 125 126 127 128 129 130 131 132 133 134 134 135 137 138 138 139 140 141 143 144 146 147 148 150 151 152 152
35 36 37 38 40 41 43 45 46 48 49 51 52 54 55 57 59 62 66 70 75 78 82 85 88 90 92 93 94 96 97 98 98 98 99 99 99 100 101 102 102 103 103 104 105 106 107 108 109 110 111 112 113 114 115 116 117 118 119 120 121 122 124 124 126 126 127 129 130 131 132 133 134 135 136 136 137 138 139 141 142 143 145 146 147 148
32 33 33 34 35 37 38 40 41 42 44 45 47 49 50 52 53 55 58 61 64 66 69 71 74 77 79 80 81 83 85 86 87 88 89 90 91 92 94 95 96 97 99 100 101 102 104 105 106 107 108 109 111 112 113 114 115 116 117 119 120 121 122 123 124 125 126 127 128 129 130 131 132 133 134 135 135 136 137 138 139 140 142 143 144 144
32 32 33 33 34 35 37 38 39 40 42 43 44 46 47 49 50 51 53 55 58 60 61 63 67 70 70 72 75 77 78 80 81 83 84 86 88 89 91 92 94 95 97 98 99 101 102 103 104 106 107 108 110 111 112 113 114 116 117 118 120 121 122 123 124 125 126 127 128 129 130 131 132 133 134 135 135 136 137 137 138 140 141 142 143 143
31 32 32 33 34 35 36 37 38 40 41 42 44 45 46 47 48 50 51 53 55 57 58 60 64 67 68 69 72 74 75 77 78 80 82 83 85 86 88 89 91 93 94 96 97 98 99 101 102 103 105 106 107 108 110 111 112 113 115 116 118 119 120 122 123 124 125 126 128 129 130 131 132 133 134 135 135 136 137 138 139 140 141 142 143 143
31 32 33 33 34 35 36 37 38 38 40 41 42 44 45 45 46 48 49 51 53 55 56 58 61 64 65 67 69 70 71 72 73 75 77 78 79 81 82 84 86 87 89 90 92 93 94 96 97 99 100 102 103 104 106 107 108 110 111 112 114 115 117 118 119 120 122 123 124 126 127 128 129 131 132 133 134 135 135 136 137 139 140 141 142 143
31 32 33 33 34 35 35 36 37 38 40 41 42 43 44 45 46 47 48 50 52 53 54 54 55 58 59 60 62 63 64 65 66 67 69 70 71 73 75 76 78 80 82 83 85 86 88 89 91 93 94 96 97 99 100 102 103 104 106 107 108 110 112 113 115 116 117 119 120 121 123 124 126 127 128 129 130 131 132 133 134 135 137 138 139 140
31 32 33 34 34 35 36 37 38 39 40 41 42 43 44 45 46 46 47 48 49 50 51 51 51 54 55 56 57 58 59 60 62 63 64 65 66 67 69 70 72 74 75 77 79 80 82 83 85 87 88 90 91 93 94 96 98 99 100 102 103 105 107 108 110 111 112 114 115 117 118 120 121 123 124 125 126 128 129 130 131 132 133 134 135 136
32 32 33 34 35 36 37 37 38 39 40 41 41 42 43 44 45 46 47 48 48 49 50 50 50 52 55 56 57 58 59 60 60 61 62 63 63 64 65 66 67 69 71 73 75 77 78 79 80 82 84 85 86 88 89 91 93 94 96 97 99 101 102 104 105 106 108 109 111 112 114 115 117 118 120 121 122 124 125 126 127 128 129 131 132 132
32 33 34 35 35 36 37 37 38 38 39 40 41 42 43 44 46 47 49 50 50 50 52 52 51 51 53 56 59 59 60 61 61 60 60 61 62 63 64 66 67 68 70 72 74 75 76 77 78 79 81 83 84 85 87 88 90 91 93 95 96 98 100 101 102 104 105 107 108 109 110 111 113 114 116 117 119 120 121 122 123 124 126 127 129 129
33 34 35 35 36 37 37 38 38 39 39 40 41 42 43 45 47 49 51 52 53 53 54 56 55 53 52 54 57 58 59 62 63 62 60 59 59 61 62 63 64 65 67 69 72 74 75 76 76 78 79 81 83 84 86 87 89 90 92 94 95 97 99 100 101 103 104 106 107 108 109 110 111 112 113 114 116 117 118 118 119 120 122 123 125 126
34 34 35 35 36 37 37 38 39 40 41 42 43 44 45 47 48 51 52 55 57 57 57 58 60 59 56 56 57 57 58 61 63 63 62 60 59 59 60 60 61 62 63 65 67 70 72 72 73 73 75 77 79 81 82 84 86 88 89 91 92 95 98 99 100 102 104 106 107 109 109 110 111 111 113 114 115 115 116 116 116 117 118 120 121 121
35 35 36 36 37 38 38 39 40 41 43 44 45 46 47 49 50 52 54 56 59 61 61 62 64 63 60 59 60 59 58 60 64 65 64 63 62 62 62 62 61 61 62 63 65 68 70 70 70 70 72 73 75 77 78 80 82 83 85 87 88 91 94 96 98 100 102 104 107 109 110 111 112 112 113 115 116 116 116 116 116 117 117 118 118 118
37 37 38 39 39 40 41 42 43 44 45 46 48 49 50 51 52 53 54 55 58 62 64 65 68 68 65 63 64 63 61 62 65 66 66 65 65 65 65 65 64 63 64 65 66 68 70 70 70 70 71 73 74 75 77 79 80 82 83 85 86 88 90 93 95 97 99 102 104 107 109 110 111 112 113 114 115 116 117 117 117 118 118 118 118 118
38 39 40 41 42 43 44 45 46 46 47 49 50 51 53 53 54 55 55 56 56 59 63 65 69 72 68 65 67 66 64 63 66 68 68 68 67 68 68 68 67 66 66 67 69 69 70 71 71 71 72 73 74 75 77 79 80 81 82 84 86 88 90 92 94 96 98 100 103 105 107 109 110 111 112 113 113 114 115 116 117 117 118 118 119 119
40 41 42 43 44 45 47 47 48 49 49 50 51 52 54 55 56 57 56 57 56 56 60 63 67 73 70 65 68 69 66 65 67 69 70 69 70 70 70 70 70 70 70 71 72 72 72 72 72 73 73 74 75 76 77 79 80 82 83 84 86 87 89 91 93 95 97 99 101 104 106 108 109 110 110 110 110 111 112 113 115 116 116 117 118 118
41 42 43 44 46 47 48 49 50 50 51 51 52 53 54 55 57 58 58 58 57 56 57 59 65 74 71 64 67 69 67 66 67 70 70 70 71 71 71 72 72 72 72 73 75 75 75 74 74 74 75 75 76 77 78 80 81 82 84 85 86 87 89 90 92 94 96 97 99 101 103 105 107 109 109 108 107 107 108 110 112 113 113 114 114 115
43 44 44 45 47 48 49 50 51 52 52 52 53 53 54 55 56 58 59 59 59 57 56 55 61 73 72 64 66 69 66 65 66 69 70 70 71 72 72 72 73 73 74 75 76 77 77 77 76 76 76 76 77 78 79 81 82 84 85 87 88 88 89 91 92 94 95 96 97 99 101 103 105 107 108 108 107 105 105 107 109 110 111 110 110 111
43 44 45 46 47 48 49 51 52 53 53 53 54 54 55 55 56 59 60 61 60 58 57 53 57 71 74 65 67 71 67 66 67 68 70 70 71 72 72 73 73 73 75 76 78 78 78 79 79 79 78 78 79 80 82 83 84 86 87 88 89 90 90 91 93 94 95 96 97 98 99 101 103 105 106 107 107 105 104 106 108 110 110 109 108 108
44 45 46 47 48 49 51 52 54 56 56 56 56 56 55 56 56 58 60 62 61 59 59 53 53 68 74 67 69 72 69 68 70 70 70 70 71 73 73 73 74 74 76 78 79 79 79 80 80 80 80 80 81 82 84 85 87 88 89 90 90 90 90 91 92 93 94 95 95 96 97 99 100 102 104 105 106 105 104 104 108 110 109 108 107 107
45 47 48 49 50 50 52 53 55 57 59 59 58 57 56 55 55 56 58 61 62 60 60 55 52 63 72 69 69 72 70 70 72 72 72 71 72 73 73 74 75 77 78 79 80 81 82 82 82 82 82 83 83 84 86 87 89 90 90 91 91 90 90 91 91 91 92 93 93 94 95 96 97 99 101 103 103 103 102 103 106 108 107 106 106 106
46 47 49 50 50 50 51 52 53 55 57 58 58 58 57 55 53 53 54 58 61 61 60 57 53 58 68 70 71 72 70 71 74 74 73 73 73 74 74 75 77 79 80 82 82 83 84 84 84 84 84 84 85 86 87 89 90 90 91 91 91 90 89 90 89 89 89 89 90 91 92 93 94 96 97 99 99 99 99 101 104 104 104 103 104 104
46 47 49 51 52 52 52 52 52 53 55 56 58 58 56 54 51 50 51 55 59 60 60 60 56 55 63 70 72 72 71 72 75 75 75 74 74 74 75 76 78 80 82 83 84 85 85 85 85 85 86 86 87 88 89 90 91 91 91 91 90 90 89 89 89 89 88 89 90 91 91 92 93 93 94 94 95 95 96 98 99 100 99 99 100 101
48 48 48 49 51 52 52 52 52 53 54 55 56 56 54 52 50 49 52 55 57 57 59 62 59 54 60 69 71 71 71 72 73 75 75 76 75 75 76 77 79 81 83 83 84 85 85 86 86 87 88 88 89 90 91 92 92 93 93 93 93 92 91 91 91 90 90 90 91 92 93 92 92 92 92 92 93 93 95 96 96 95 95 96 97 97
50 49 50 50 50 50 49 49 49 50 52 53 55 55 53 51 51 51 53 55 55 54 56 63 62 54 58 68 70 70 71 71 71 73 74 76 77 77 78 79 81 82 82 83 83 84 85 86 87 88 89 90 91 92 93 94 95 95 95 95 94 93 91 90 89 89 89 89 90 90 90 89 89 88 89 89 90 92 94 94 93 92 93 94 94 94
50 51 51 52 52 51 50 50 50 50 51 52 54 55 54 53 53 54 54 55 56 54 54 62 64 57 57 64 66 67 69 70 70 72 73 75 76 77 79 80 81 82 82 83 84 85 86 87 88 89 90 90 92 94 95 96 96 96 95 93 91 90 89 88 88 87 88 88 88 88 87 86 85 85 85 86 86 88 91 92 91 90 91 92 92 92
50 50 51 52 52 52 51 51 52 52 53 54 54 55 56 57 56 56 57 58 59 58 56 59 64 63 63 64 65 67 69 69 70 72 73 75 76 77 79 80 81 82 82 83 84 85 86 87 88 89 90 91 93 95 96 96 96 95 94 92 90 89 88 88 87 86 86 85 84 84 83 83 82 82 82 83 83 84 86 87 88 88 88 89 90 90
48 49 51 53 53 53 53 53 53 54 56 57 57 58 58 59 59 60 61 62 62 62 61 60 61 65 68 68 68 70 72 72 73 74 75 77 78 79 80 81 81 82 83 84 85 85 86 87 88 89 90 92 94 95 96 95 95 93 92 89 88 87 87 87 86 84 83 82 81 80 80 80 79 79 79 79 79 80 81 83 84 85 86 87 88 88
47 48 50 53 54 55 56 56 55 57 59 61 62 63 63 63 64 65 66 66 65 65 65 63 61 63 67 70 70 72 75 75 76 76 77 79 80 81 81 82 82 83 84 84 85 85 86 87 89 90 92 93 94 95 94 93 92 90 88 87 86 86 87 86 85 83 81 80 80 79 78 78 77 77 77 77 77 77 78 79 81 82 83 84 85 85
48 49 51 53 56 58 60 61 60 60 64 65 66 68 69 69 71 73 74 73 70 69 68 67 64 63 65 67 69 72 75 76 76 77 78 79 80 81 82 82 82 83 83 83 84 85 86 88 89 90 91 93 93 93 92 91 89 88 87 86 86 86 86 86 84 83 81 79 78 78 77 76 75 75 75 75 76 76 77 77 78 79 79 80 81 82
51 51 52 54 58 59 61 64 64 63 66 70 71 72 74 75 77 79 82 80 77 74 73 72 69 66 65 65 67 69 73 75 75 76 76 77 79 80 81 81 81 82 82 82 83 85 86 88 89 89 90 91 91 91 91 90 88 87 86 85 85 85 84 83 82 81 80 79 77 76 75 74 74 73 74 74 74 74 75 75 76 76 76 76 77 78
54 54 54 55 58 61 62 65 67 66 67 72 75 76 77 79 79 82 85 85 83 82 80 78 74 71 69 68 68 69 71 73 75 75 76 76 77 78 79 79 79 80 81 82 84 85 87 88 89 89 90 91 91 91 90 89 87 85 84 84 84 83 82 81 80 79 79 78 77 75 74 73 73 72 72 72 72 72 72 72 73 73 73 73 73 74
56 57 58 58 60 63 65 67 70 70 70 73 77 78 79 81 82 84 87 88 87 87 86 84 80 77 73 72 72 71 73 75 77 77 77 78 78 78 78 78 79 80 81 82 84 86 87 88 88 89 91 92 92 90 89 88 87 86 86 85 84 83 81 80 79 79 78 77 76 76 74 73 72 71 71 70 70 70 70 70 70 70 70 70 70 71
59 61 62 62 63 64 67 69 71 74 75 76 79 81 83 84 84 85 87 90 90 90 90 88 86 82 77 75 75 75 76 78 80 80 80 80 80 80 80 80 80 80 81 82 84 85 87 88 88 90 91 92 91 90 89 88 88 88 88 87 85 83 81 80 79 78 77 76 75 74 74 73 72 71 70 69 68 68 68 67 67 67 67 67 68 68
63 65 66 67 67 67 69 71 73 75 77 78 80 82 83 85 85 85 87 90 92 92 92 91 88 85 81 78 77 77 78 80 82 83 82 83 84 83 83 82 81 81 81 83 85 86 87 88 90 91 92 92 92 92 90 89 88 88 88 88 86 84 82 80 79 77 76 75 74 73 72 71 70 69 68 67 67 66 66 65 65 65 65 65 65 66
67 68 69 70 71 71 71 72 74 75 77 78 80 82 83 85 87 87 88 90 92 94 94 93 91 87 83 80 79 79 79 80 83 85 86 86 86 85 84 84 83 83 84 85 87 89 90 92 93 95 95 95 94 93 91 89 88 88 88 87 85 83 81 80 78 77 75 74 73 72 71 70 69 67 66 65 65 64 63 63 63 62 62 63 63 63
69 70 72 73 74 74 74 74 75 76 78 80 81 83 85 87 88 90 90 91 94 96 97 96 94 90 86 83 81 81 80 81 83 85 86 86 86 85 84 84 85 85 87 88 89 91 93 94 96 97 97 96 95 93 91 89 89 89 88 86 84 81 80 78 77 75 74 73 72 71 70 69 68 67 65 64 63 62 61 61 60 60 60 60 60 61
69 71 73 74 75 76 77 77 79 80 81 82 83 85 87 88 90 92 92 93 95 97 98 98 96 93 89 86 85 84 84 83 83 85 86 86 86 86 85 85 85 86 88 90 91 93 94 95 96 97 97 96 94 92 90 88 88 88 87 85 82 80 78 76 75 74 73 72 71 71 70 69 67 66 64 63 62 61 60 60 59 59 59 58 58 59
68 71 73 75 76 77 78 78 80 82 84 85 86 87 89 91 92 94 95 96 97 99 100 99 98 95 92 89 88 88 88 87 86 86 87 88 88 88 87 86 86 87 88 90 92 93 95 96 96 96 95 94 93 91 88 88 88 87 85 83 81 79 77 76 74 73 72 71 70 69 69 68 66 65 63 62 61 60 59 59 58 58 57 57 57 57
68 71 73 75 76 78 80 80 80 82 85 87 88 89 91 93 94 97 98 98 99 101 101 101 100 98 95 92 91 90 90 90 90 90 90 91 90 90 89 88 88 89 90 91 92 94 95 96 96 96 95 94 92 90 88 87 87 87 85 82 80 78 77 75 73 72 71 70 69 69 68 67 65 64 63 62 61 60 59 58 58 57 56 56 56 56
70 71 74 77 78 79 81 82 83 83 86 88 90 91 93 95 96 98 100 101 102 103 104 104 103 100 97 94 92 92 91 91 92 92 93 93 93 92 91 90 90 90 91 93 94 95 96 97 97 96 95 94 92 90 88 87 87 86 84 82 79 78 76 74 73 72 70 69 68 67 66 65 64 63 62 61 61 60 59 58 58 57 56 56 55 55
72 74 75 78 80 81 83 85 87 88 89 90 92 93 95 97 98 100 102 103 104 106 106 106 104 101 97 95 93 93 93 93 93 94 95 95 95 94 93 91 90 91 92 93 95 96 96 97 97 96 96 94 92 90 88 87 87 86 83 81 79 77 75 74 72 71 70 69 67 66 65 63 62 62 61 61 60 59 58 57 57 56 55 55 54 54
73 75 77 79 81 83 85 87 89 92 93 94 95 96 97 99 101 102 104 105 106 107 108 107 104 101 98 95 94 94 93 93 94 95 96 97 97 96 94 92 91 91 93 94 95 96 97 97 98 97 95 93 91 89 88 87 87 85 83 81 78 77 75 73 72 70 69 68 67 65 63 62 61 61 61 60 60 59 58 57 56 55 54 54 53 52
73 75 77 80 82 84 86 88 90 93 95 96 97 97 99 101 102 104 106 107 108 109 109 108 105 101 98 96 95 94 94 94 95 96 97 98 97 96 94 93 92 92 93 95 96 97 98 98 98 97 95 93 91 89 88 87 87 85 83 81 78 77 75 73 71 70 68 67 66 65 63 61 60 60 60 60 59 58 57 57 56 54 53 53 52 51
74 76 78 80 83 84 86 88 90 92 95 97 98 99 100 102 104 106 107 109 109 110 110 108 105 101 99 97 96 95 95 95 96 97 98 98 98 97 95 94 93 93 94 95 97 98 98 98 98 97 95 93 91 90 88 87 87 85 83 80 78 77 75 73 71 70 68 67 66 64 62 60 59 59 59 59 58 57 56 56 55 54 53 52 52 51
75 77 79 81 84 85 86 88 90 92 95 97 98 100 102 103 105 106 108 109 110 110 110 107 104 101 98 97 96 96 95 96 96 97 98 99 99 98 96 94 94 94 94 96 97 98 98 98 98 97 95 93 92 90 89 88 87 85 82 80 78 76 75 74 72 70 69 67 65 64 62 60 60 59 58 58 57 56 54 54 53 53 52 52 51 50
77 79 81 82 85 87 87 88 90 93 96 97 98 100 102 104 105 107 108 109 110 111 110 107 103 100 99 98 97 96 96 96 97 98 99 99 99 98 97 95 94 94 95 96 97 98 98 98 97 96 95 93 91 90 89 88 87 85 83 80 78 77 75 74 72 71 69 68 66 64 62 60 60 59 59 58 57 55 54 53 53 52 50 50 50 50
78 81 83 84 85 88 89 90 91 93 96 98 99 100 102 104 106 107 109 110 111 111 109 106 103 100 99 98 97 97 96 97 98 99 99 100 100 99 97 96 95 95 96 96 97 98 98 98 97 95 94 93 91 89 88 88 87 85 83 80 78 77 75 74 72 71 70 68 66 64 62 60 59 59 59 58 56 54 52 51 52 52 51 49 49 50
80 83 85 86 87 89 90 92 93 94 95 98 99 101 103 105 107 109 110 111 112 111 109 106 102 100 99 98 98 97 97 97 98 99 100 100 100 99 98 96 95 95 96 97 98 98 98 98 96 95 93 92 90 89 88 88 87 85 83 80 78 77 76 74 73 71 70 68 67 64 62 61 60 59 59 58 57 54 51 48 48 50 51 50 49 49
82 84 86 87 88 89 91 93 94 95 96 98 101 103 105 107 109 110 112 113 113 112 109 105 103 101 99 98 98 97 97 98 99 100 100 101 101 100 98 97 96 96 96 97 98 98 98 97 96 94 93 92 91 89 88 87 86 85 82 80 78 77 76 75 73 72 70 69 67 64 62 61 60 60 59 59 58 56 53 49 45 44 46 48 49 49
Wind_Direction
271 271 270 269 269 269 269 269 270 271 271 272 271 269 267 265 265 265 265 266 266 267 268 269 270 271 271 272 273 274 274 275 275 275 276 276 276 276 276 276 276 276 276 276 275 275 275 275 275 275 274 274 274 274 274 273 273 273 272 272 272 272 271 271 270 270 270 269 269 268 268 267 267 266 266 266 265 265 265 265 265 264 264 264 263 263
276 275 275 274 273 273 273 273 274 274 275 275 275 275 274 272 270 269 268 268 268 269 270 270 271 272 272 273 274 274 275 275 275 276 276 276 276 276 276 276 276 276 276 276 276 276 275 275 275 275 275 275 274 274 274 274 273 273 273 273 272 272 272 271 271 271 270 270 270 269 269 268 268 267 267 266 266 265 265 265 265 264 264 264 263 263
281 280 280 279 279 279 278 278 278 279 279 279 279 278 278 277 276 274 273 272 272 272 272 273 273 274 274 275 275 276 276 276 276 277 277 277 277 277 277 277 277 277 277 276 276 276 276 276 276 276 275 275 275 275 274 274 274 274 273 273 273 272 272 272 271 271 271 270 270 270 269 269 269 268 268 267 267 266 266 265 265 265 264 264 264 263
287 286 285 285 285 284 284 284 284 284 283 283 283 282 282 281 280 279 278 277 277 277 277 277 277 277 277 278 278 278 278 278 278 278 278 278 278 278 278 278 277 277 277 277 277 276 276 276 276 276 276 275 275 275 275 274 274 274 274 274 273 273 273 272 272 272 271 271 271 270 270 269 269 269 268 268 267 267 267 266 266 266 265 265 264 264
294 293 292 291 290 289 288 288 287 287 287 286 285 285 284 284 284 283 282 281 281 281 281 281 281 280 280 280 280 280 280 280 280 280 280 279 279 279 279 278 278 278 278 277 277 277 277 277 277 276 276 276 276 275 275 275 275 274 274 274 274 273 273 273 273 272 272 272 271 271 270 270 270 269 269 268 268 267 267 266 266 266 265 265 265 265
296 295 294 293 292 291 290 289 288 288 287 287 286 286 285 285 285 285 285 285 284 284 284 285 285 285 285 285 284 284 284 284 284 283 283 282 282 281 281 281 280 280 280 280 279 279 279 279 279 278 278 278 277 277 277 277 276 276 276 275 275 275 274 274 274 273 273 273 272 272 271 271 271 270 270 269 268 268 267 267 266 266 265 265 265 264
297 296 295 293 292 291 290 289 288 288 288 287 288 288 288 288 288 288 288 288 288 288 289 289 289 289 289 289 288 288 288 287 286 286 285 284 284 284 283 283 283 282 282 282 282 281 281 281 280 280 280 279 279 279 279 278 278 278 277 277 277 276 276 276 275 275 274 274 274 273 273 272 272 271 271 270 270 269 269 268 267 267 266 266 265 264
297 296 295 295 295 294 294 294 294 293 293 292 292 292 292 292 291 291 291 291 291 291 291 291 291 291 291 291 291 291 291 291 290 290 289 288 287 287 286 286 285 285 284 284 284 283 283 282 282 282 281 281 281 281 280 280 279 279 279 278 278 277 277 277 276 276 276 275 275 274 274 274 273 273 272 272 271 271 270 270 269 268 268 267 266 266
300 301 301 301 301 301 300 299 299 298 297 296 295 295 294 294 293 293 292 292 292 292 292 292 294 295 296 296 297 298 299 298 298 297 296 294 293 292 291 290 289 289 288 288 287 286 286 286 285 285 284 283 283 282 282 282 281 281 280 280 279 279 278 278 277 277 277 276 276 275 275 275 274 274 273 273 272 272 271 271 270 270 269 269 268 267
306 306 306 305 304 303 302 301 300 299 298 298 297 296 296 296 296 295 295 294 294 295 296 296 297 301 303 304 304 305 306 305 303 302 301 300 299 298 297 296 295 294 293 292 292 290 290 289 288 288 287 286 286 285 284 284 283 283 282 282 281 281 280 280 279 279 278 277 277 276 276 275 275 274 274 274 273 273 272 272 271 271 270 270 270 269
309 308 307 306 305 304 303 302 301 300 299 299 298 298 298 298 299 298 298 297 297 298 299 299 300 303 306 307 308 309 309 308 306 306 306 306 305 304 303 302 301 300 299 298 296 295 294 293 293 292 291 291 290 290 289 288 287 287 286 286 285 284 283 283 282 281 281 280 279 278 278 277 276 276 275 275 274 273 273 272 272 271 271 271 270 270
310 309 308 307 306 305 304 303 303 302 301 300 300 300 300 300 300 300 300 301 301 301 303 303 303 303 305 306 306 308 309 308 307 308 308 308 308 307 306 305 304 303 301 300 299 298 297 296 296 296 295 295 294 293 293 292 291 290 289 289 288 287 286 286 285 284 283 283 282 281 280 279 279 278 277 277 276 275 274 274 273 272 272 271 271 270
309 308 307 306 306 305 304 304 303 303 302 302 301 301 301 301 301 302 304 305 305 305 306 305 304 303 304 304 304 305 307 307 307 307 308 308 308 307 306 305 304 303 302 301 299 298 297 296 296 295 295 294 294 293 292 292 291 290 290 289 289 288 287 287 286 286 285 285 284 283 283 282 281 281 280 279 278 278 277 276 275 275 274 273 272 272
309 308 307 306 305 304 304 303 303 303 303 303 303 303 303 304 305 306 307 308 308 307 306 305 304 303 304 305 304 305 305 305 305 306 307 308 308 307 307 306 306 306 305 303 301 299 298 297 296 295 294 293 292 291 291 290 290 289 288 288 287 286 286 286 285 285 284 284 283 283 283 282 282 281 281 280 280 280 279 279 278 277 277 276 275 274
310 309 308 307 306 305 304 304 304 304 304 304 305 305 305 306 306 306 306 306 306 306 306 306 304 303 304 305 305 305 305 305 304 304 305 306 307 307 307 308 308 309 308 307 304 302 301 300 298 297 295 294 293 293 292 291 290 290 289 288 287 286 285 284 284 283 283 282 281 281 281 281 281 280 279 279 279 279 279 279 279 279 278 278 277 276
310 309 308 307 306 305 305 305 305 305 305 305 306 306 306 306 305 305 304 304 304 304 305 305 304 303 304 306 305 305 306 305 304 303 304 305 306 306 307 308 309 309 309 309 307 305 304 303 302 300 298 297 297 296 295 295 294 293 292 291 290 289 287 286 285 284 283 282 281 281 280 280 279 279 278 278 278 278 278 278 278 278 278 278 277 277
309 308 307 306 306 306 305 305 305 305 305 305 305 305 305 305 305 304 303 303 303 303 304 305 304 301 303 306 305 305 306 306 305 304 304 305 305 305 307 308 309 309 310 310 309 308 308 307 306 304 302 301 300 300 299 299 298 298 297 295 294 293 291 290 289 287 286 284 283 282 282 281 280 279 279 278 278 277 277 277 277 277 277 277 277 277
310 308 308 307 307 307 307 306 306 306 306 306 305 305 304 304 304 303 303 302 302 303 303 304 303 300 301 305 305 304 306 307 306 304 304 304 304 304 305 306 308 309 310 310 309 310 310 309 308 306 304 303 302 302 302 302 302 301 300 299 298 297 295 294 293 291 289 288 286 285 284 283 282 281 281 280 279 278 277 277 276 276 276 276 276 276
313 312 311 310 310 309 309 308 308 307 307 306 305 305 304 304 304 303 303 302 302 303 302 303 302 298 300 305 304 303 305 306 305 304 304 304 303 303 303 304 306 308 308 308 308 309 310 310 309 308 306 306 305 305 305 304 304 304 304 303 302 300 299 297 295 293 291 290 288 287 286 285 285 284 283 283 282 280 280 279 278 278 277 277 277 276
316 315 314 314 313 312 311 310 309 308 308 307 307 306 306 306 306 305 304 304 303 303 302 303 302 298 300 304 303 301 304 305 304 303 303 303 302 301 302 303 305 306 306 307 308 309 310 311 310 309 309 308 308 307 307 307 306 306 306 305 303 302 300 298 296 294 293 292 290 289 288 287 287 286 286 285 284 284 283 282 281 280 279 279 279 278
319 317 316 316 315 314 313 312 311 309 309 309 308 308 308 308 308 307 306 305 304 304 303 304 303 299 300 304 303 302 305 305 304 303 303 303 302 301 302 302 303 304 305 306 308 310 311 311 311 311 311 310 310 310 309 309 308 308 307 305 304 302 301 299 297 295 294 292 291 290 289 288 287 287 286 285 285 284 284 283 281 281 281 280 280 279
320 319 317 317 316 315 315 314 313 312 311 311 311 310 310 311 310 309 308 306 304 304 304 305 305 301 301 304 303 303 305 306 304 304 304 303 302 301 302 302 303 304 305 307 309 310 311 311 312 312 312 312 311 311 311 310 309 308 307 306 304 303 301 300 298 296 294 293 292 290 289 288 287 286 285 285 284 284 283 282 281 280 280 280 279 279
323 323 321 320 320 319 319 319 318 316 315 314 314 313 315 317 316 314 310 306 305 305 306 306 306 303 303 304 303 303 305 305 304 304 303 303 302 302 303 304 305 306 307 309 311 311 312 312 313 313 313 312 312 312 311 310 309 308 307 306 304 303 301 299 297 295 293 292 291 289 288 287 286 285 285 284 284 284 283 281 280 280 280 280 280 279
329 329 327 326 325 325 326 325 324 321 319 318 318 318 321 322 320 316 310 306 306 308 310 308 306 306 305 303 303 304 305 305 304 304 304 303 304 304 305 306 307 308 309 310 311 312 312 313 313 313 313 313 312 312 312 311 309 308 307 306 305 304 303 301 299 298 297 296 294 293 291 290 289 288 287 286 285 284 283 282 281 281 281 281 280 279
334 333 331 330 330 330 331 330 328 326 324 323 322 323 324 323 319 315 310 308 309 312 312 307 306 309 307 303 303 304 305 305 305 305 306 306 306 306 307 307 307 308 309 310 311 311 312 313 313 313 313 313 313 313 312 312 311 311 310 310 309 307 305 304 302 301 300 299 297 296 294 293 292 291 290 289 288 286 285 283 283 283 282 281 281 280
338 337 335 334 334 334 333 332 331 330 328 327 327 326 326 324 321 318 315 313 312 313 312 307 307 311 308 303 304 306 306 306 307 307 307 307 307 308 308 308 307 308 309 310 311 312 313 314 314 314 314 314 314 315 315 315 314 313 312 310 308 306 304 303 302 301 300 298 297 296 294 293 292 291 290 289 288 287 286 285 285 284 283 282 281 281
343 342 340 339 338 338 338 336 336 336 335 334 333 332 331 329 326 323 320 317 315 315 315 311 311 313 308 305 306 307 307 307 307 307 307 307 307 308 307 307 308 309 310 311 313 314 314 314 314 314 314 316 317 317 317 316 314 312 310 309 307 306 305 304 303 302 301 299 298 297 295 294 293 292 290 289 288 287 286 286 286 285 284 283 282 281
348 347 346 345 344 344 344 344 344 344 343 342 341 340 338 335 332 330 327 324 321 320 320 318 317 315 311 309 309 308 307 307 307 307 307 307 307 307 307 308 309 311 312 314 314 314 314 313 314 315 316 317 318 318 316 315 314 312 311 310 309 308 306 305 304 303 302 300 299 297 296 295 294 293 291 290 289 287 287 286 286 285 284 283 282 281
353 352 352 350 349 349 349 349 350 351 350 348 347 346 345 342 340 338 335 332 329 328 327 325 322 318 315 314 313 311 310 310 309 309 309 309 309 309 309 310 312 313 314 314 314 313 313 314 315 317 318 319 318 317 316 315 314 313 312 310 310 309 308 307 306 305 304 302 301 300 298 297 296 294 293 291 290 288 287 286 286 285 284 283 282 282
355 355 355 354 353 353 353 353 354 355 354 352 352 350 349 348 347 345 342 339 337 337 335 331 328 323 319 318 317 314 312 312 312 311 311 311 311 311 311 312 313 314 313 313 313 313 314 316 317 318 319 319 318 317 316 315 314 313 312 312 311 311 310 310 309 308 307 305 304 303 301 300 299 297 295 294 292 291 289 288 287 286 285 284 284 283
355 356 357 356 355 355 355 354 354 356 356 354 354 353 352 352 351 349 347 345 345 345 342 337 334 330 327 324 322 319 317 316 315 315 314 314 313 313 313 314 314 313 312 312 313 315 316 317 318 319 319 319 318 317 316 316 316 315 315 314 314 313 313 312 311 310 309 307 306 305 303 302 301 299 298 296 295 293 291 290 288 287 286 285 284 284
354 355 356 357 356 355 356 355 354 356 356 355 354 354 354 353 353 352 349 348 348 348 346 342 339 336 332 330 328 326 323 322 321 319 318 317 316 315 315 314 313 313 313 314 316 317 318 318 319 320 320 319 319 319 319 319 318 317 316 316 316 315 315 314 312 311 310 309 308 307 305 304 303 301 300 298 296 295 293 292 290 289 287 286 285 284
353 354 355 357 357 356 355 355 354 354 357 356 354 354 354 354 354 353 350 348 349 349 347 345 342 339 336 334 332 330 328 326 325 324 323 322 320 319 317 315 315 315 316 317 318 318 319 319 321 321 321 321 322 322 321 320 319 318 318 318 318 317 316 315 314 313 312 311 310 309 308 307 305 303 302 300 298 296 295 293 292 290 289 287 286 285
352 353 353 355 357 356 355 356 354 353 355 356 354 353 354 353 353 353 350 348 349 349 348 346 344 341 338 336 334 333 331 330 329 328 328 326 324 322 320 319 319 319 320 320 319 319 320 322 323 324 324 324 324 324 323 323 322 321 321 321 320 320 319 318 317 316 315 314 313 312 311 310 308 306 304 302 300 299 297 295 294 292 291 289 288 286
352 352 353 354 355 356 355 355 354 352 353 355 354 353 353 352 352 353 350 348 349 349 348 347 345 342 339 337 336 335 334 333 331 331 330 328 326 326 324 323 323 322 321 321 321 321 323 324 326 327 326 326 326 326 326 326 325 324 324 323 323 322 321 320 319 317 316 315 314 314 313 311 310 309 307 305 303 301 299 298 296 295 293 291 290 288
352 351 352 352 353 355 355 354 353 352 352 354 353 351 351 351 351 352 350 348 348 349 347 347 345 343 340 338 337 337 336 334 333 332 332 331 330 329 328 326 325 324 323 323 323 324 326 328 329 329 329 329 329 329 328 327 326 326 325 325 325 324 323 321 320 319 318 317 316 315 314 313 312 311 309 307 306 304 302 300 299 297 296 294 292 290
350 350 350 351 352 353 354 353 352 351 351 352 352 350 350 350 349 350 350 348 347 348 347 346 345 343 341 339 338 337 337 336 335 334 334 334 332 331 329 328 327 326 326 326 327 328 330 332 332 332 331 332 331 330 330 329 328 328 327 327 326 325 324 323 321 320 319 319 318 317 316 315 314 313 311 309 308 306 305 303 301 300 298 295 294 292
348 348 348 349 350 350 351 351 350 350 350 351 351 350 349 349 349 349 349 348 347 347 346 346 345 343 341 339 338 337 337 337 337 336 335 335 333 332 331 330 329 329 329 329 330 332 333 334 334 334 333 333 332 331 331 330 330 329 328 328 327 326 325 324 323 322 321 321 320 319 318 317 316 315 313 312 310 309 308 306 304 302 300 297 296 294
347 347 346 348 348 348 349 350 349 348 349 351 350 349 349 348 348 348 348 348 347 347 346 346 345 343 341 340 339 338 338 338 338 337 336 335 334 334 333 332 332 331 331 332 333 334 335 335 335 334 333 333 332 332 332 331 331 330 329 328 327 327 326 325 325 324 323 323 322 321 320 319 318 317 316 315 313 312 311 309 307 305 303 300 298 295
346 345 345 346 347 347 347 349 349 347 348 350 350 349 348 348 348 347 348 348 347 347 346 345 344 343 342 340 340 339 338 338 338 338 337 337 337 336 335 334 333 333 333 333 334 335 336 336 335 334 334 334 333 333 333 333 332 331 330 329 329 328 328 327 327 326 325 325 324 323 322 321 320 319 318 317 316 315 314 312 310 308 306 303 300 297
345 345 344 344 346 346 346 348 348 347 347 349 349 348 347 348 348 347 347 347 347 346 346 345 344 343 342 341 340 339 338 338 338 338 339 339 339 338 337 336 335 335 334 335 335 336 336 336 336 335 335 335 334 334 334 334 333 332 331 331 330 330 330 329 329 328 328 327 326 325 324 323 322 322 321 320 319 318 317 315 313 311 308 305 302 300
343 344 343 343 345 345 345 346 347 346 347 348 349 348 347 347 347 347 346 346 346 346 346 345 344 343 342 341 340 339 339 338 339 339 340 340 340 339 338 337 336 336 335 335 336 337 337 337 336 336 336 336 335 335 335 334 334 333 333 332 332 332 331 331 331 330 329 329 328 327 326 325 324 324 323 323 322 321 319 317 315 313 311 308 305 303
342 343 343 343 344 344 345 345 346 345 346 348 348 348 347 347 347 346 346 346 346 346 346 345 344 342 341 340 339 339 339 339 339 340 340 341 341 340 339 338 337 336 336 336 336 337 338 338 337 337 337 337 336 336 336 336 335 335 334 333 333 333 333 333 333 332 331 330 329 328 327 327 326 326 326 325 324 322 321 319 317 316 313 310 308 306
341 342 342 342 343 344 344 345 345 344 345 347 348 347 346 346 346 346 346 346 346 345 345 344 343 342 341 340 339 339 339 339 340 340 341 341 341 340 339 338 337 337 337 337 337 338 338 339 338 338 337 337 337 337 337 337 336 336 335 335 335 334 335 335 334 334 333 332 331 330 329 329 329 328 328 327 326 324 323 321 320 318 315 313 311 309
340 341 341 341 341 342 343 344 344 344 344 346 347 346 346 346 345 345 345 345 345 345 344 343 342 341 340 339 339 339 339 340 340 341 341 342 341 341 340 339 338 338 337 337 337 338 339 339 339 338 338 338 338 338 338 338 338 337 336 336 336 336 336 336 336 335 335 334 333 332 331 331 331 331 330 329 328 326 325 324 322 321 318 316 314 311
339 339 340 340 340 341 342 342 343 343 343 344 345 345 345 345 345 345 345 345 344 344 343 342 341 340 339 339 339 339 339 340 341 341 341 342 341 341 340 339 338 338 337 337 338 339 340 340 339 338 338 339 339 339 338 339 339 338 337 337 337 337 337 337 337 337 336 335 334 333 333 333 333 333 332 331 330 328 327 326 325 323 321 319 316 314
337 337 338 338 338 339 340 341 341 341 342 343 344 344 344 344 344 344 344 344 343 343 342 342 341 340 339 338 339 339 340 340 340 341 341 342 342 341 340 340 339 338 338 338 339 339 340 340 339 339 339 340 339 339 339 339 339 339 339 338 338 338 338 338 338 338 338 337 336 335 335 335 335 335 334 333 332 330 329 328 327 325 324 321 319 317
336 336 336 337 337 337 339 339 340 340 341 342 343 343 343 343 343 343 343 343 343 342 342 341 340 339 338 339 339 339 340 340 341 341 341 342 342 341 341 340 339 338 338 338 339 340 340 340 340 340 340 340 340 340 340 340 340 340 339 339 339 339 339 339 339 339 339 338 337 336 336 337 337 337 336 335 334 333 331 330 329 328 326 324 321 319
334 334 334 336 336 336 337 338 339 339 340 341 342 342 342 342 342 342 343 342 342 341 341 340 339 339 338 338 339 339 340 340 341 341 341 342 342 342 341 340 339 339 338 338 339 340 341 341 340 340 340 340 340 341 341 341 341 341 340 340 340 340 340 340 340 340 340 339 338 338 338 338 338 338 337 336 335 334 334 334 333 331 329 327 325 322
333 333 333 334 335 335 336 336 337 338 339 340 341 341 341 341 342 342 342 342 341 341 340 340 339 339 338 338 338 339 340 340 340 341 341 342 342 342 341 340 340 339 338 339 340 341 341 341 341 341 341 341 341 341 341 341 341 341 341 341 341 341 341 341 341 341 341 340 339 339 339 339 339 339 339 337 336 335 335 336 336 335 332 330 327 325
331 331 331 332 334 334 334 335 336 337 338 339 340 340 340 340 341 341 341 341 341 340 340 339 339 338 338 338 338 339 339 340 340 341 341 342 342 342 341 341 340 339 339 339 340 341 341 341 341 341 341 342 342 342 342 342 342 342 342 341 341 341 341 341 341 341 341 340 340 339 339 340 340 340 340 338 337 336 335 335 337 338 337 334 331 328
Height
10594 10592 10590 10588 10586 10584 10582 10580 10578 10576 10574 10572 10569 10566 10566 10568 10568 10567 10566 10563 10561 10560 10557 10555 10553 10549 10546 10543 10541 10537 10534 10530 10527 10523 10520 10516 10513 10508 10505 10501 10497 10494 10490 10486 10483 10479 10475 10472 10468 10465 10462 10458 10455 10452 10448 10445 10441 10438 10435 10432 10429 10426 10423 10420 10417 10415 10412 10410 10408 10406 10404 10402 10400 10399 10398 10396 10394 10392 10389 10387 10385 10384 10383 10383 10383 10383
10588 10586 10584 10581 10579 10577 10574 10572 10570 10568 10567 10565 10562 10560 10559 10560 10560 10559 10557 10554 10552 10550 10548 10545 10542 10538 10536 10533 10530 10526 10523 10519 10515 10512 10508 10505 10500 10496 10491 10487 10483 10480 10477 10473 10468 10464 10460 10456 10453 10449 10446 10442 10439 10435 10431 10428 10424 10420 10417 10413 10410 10407 10403 10400 10397 10394 10392 10389 10386 10384 10382 10379 10377 10376 10375 10374 10373 10371 10368 10365 10363 10361 10360 10359 10359 10360
10582 10580 10578 10576 10573 10571 10569 10566 10564 10562 10560 10558 10556 10554 10552 10552 10552 10550 10548 10545 10543 10541 10539 10536 10532 10528 10526 10523 10519 10515 10511 10507 10504 10500 10497 10493 10488 10483 10478 10474 10470 10466 10463 10459 10454 10450 10446 10442 10438 10435 10431 10427 10423 10419 10415 10411 10407 10404 10400 10396 10392 10389 10385 10382 10378 10375 10372 10369 10366 10363 10361 10358 10355 10353 10352 10351 10351 10349 10347 10344 10341 10339 10337 10335 10335 10336
10577 10575 10573 10571 10568 10566 10563 10561 10559 10556 10554 10552 10550 10547 10545 10545 10544 10543 10540 10537 10535 10533 10530 10528 10522 10519 10518 10514 10509 10505 10500 10497 10493 10489 10485 10481 10476 10471 10466 10462 10458 10453 10449 10445 10441 10436 10432 10428 10424 10421 10416 10412 10408 10404 10399 10395 10392 10388 10384 10379 10375 10371 10367 10364 10360 10357 10354 10350 10347 10344 10341 10338 10335 10332 10331 10330 10329 10328 10325 10323 10320 10318 10315 10313 10312 10313
10571 10569 10568 10566 10563 10561 10558 10556 10554 10551 10549 10546 10544 10542 10540 10539 10537 10535 10533 10530 10528 10525 10523 10520 10513 10509 10509 10505 10499 10495 10491 10487 10483 10479 10474 10469 10464 10459 10454 10450 10445 10440 10436 10432 10428 10423 10419 10414 10410 10406 10402 10397 10393 10389 10384 10379 10376 10372 10367 10363 10358 10353 10349 10346 10342 10338 10335 10331 10327 10324 10321 10318 10315 10312 10309 10308 10307 10305 10304 10302 10299 10297 10293 10291 10290 10291
10567 10565 10563 10561 10559 10556 10554 10552 10549 10547 10544 10541 10539 10537 10535 10533 10531 10529 10526 10523 10520 10517 10515 10512 10504 10499 10498 10495 10488 10484 10480 10477 10472 10467 10462 10457 10452 10448 10442 10437 10432 10427 10422 10418 10413 10409 10405 10400 10396 10391 10386 10381 10377 10373 10368 10363 10359 10355 10350 10346 10341 10336 10331 10327 10324 10320 10315 10312 10308 10304 10301 10297 10294 10291 10288 10286 10284 10282 10281 10279 10277 10275 10271 10268 10268 10268
10564 10561 10559 10556 10554 10552 10550 10547 10545 10542 10539 10536 10534 10531 10529 10527 10525 10523 10519 10516 10512 10510 10507 10504 10498 10491 10487 10484 10478 10473 10470 10465 10461 10455 10450 10446 10441 10436 10431 10425 10420 10415 10410 10405 10400 10396 10391 10387 10381 10376 10371 10366 10362 10357 10352 10348 10343 10338 10334 10329 10324 10319 10314 10309 10305 10301 10296 10292 10288 10284 10281 10277 10273 10270 10266 10264 10261 10259 10257 10256 10254 10252 10248 10246 10244 10245
10560 10557 10554 10552 10549 10547 10544 10542 10539 10536 10534 10531 10528 10525 10523 10520 10518 10515 10513 10509 10505 10503 10500 10497 10492 10485 10480 10475 10469 10464 10460 10455 10450 10445 10440 10435 10430 10425 10420 10415 10410 10404 10399 10393 10388 10383 10378 10374 10368 10363 10358 10353 10348 10343 10337 10332 10328 10323 10318 10313 10308 10302 10297 10292 10287 10283 10279 10274 10269 10265 10261 10257 10253 10249 10246 10242 10239 10236 10235 10233 10230 10228 10225 10222 10220 10220
10556 10553 10550 10547 10544 10541 10539 10536 10534 10531 10528 10525 10522 10520 10516 10514 10511 10508 10505 10503 10499 10495 10491 10489 10485 10477 10472 10468 10461 10455 10450 10445 10440 10435 10429 10424 10419 10414 10409 10404 10399 10393 10388 10382 10377 10371 10366 10361 10356 10350 10344 10340 10335 10330 10324 10318 10313 10308 10303 10297 10292 10286 10281 10276 10271 10266 10261 10256 10252 10247 10242 10238 10234 10230 10226 10222 10218 10215 10212 10211 10208 10205 10202 10198 10196 10196
10551 10548 10545 10542 10540 10537 10534 10531 10529 10526 10523 10519 10516 10513 10510 10507 10504 10500 10497 10495 10492 10487 10482 10479 10476 10469 10462 10457 10452 10447 10441 10435 10431 10425 10420 10414 10409 10404 10398 10394 10389 10383 10377 10371 10365 10360 10355 10350 10345 10338 10332 10326 10322 10317 10311 10305 10299 10293 10288 10283 10277 10270 10265 10260 10255 10250 10244 10239 10234 10229 10224 10220 10215 10210 10206 10202 10198 10194 10191 10189 10187 10184 10180 10176 10173 10172
10546 10544 10541 10538 10535 10532 10529 10526 10523 10520 10518 10514 10511 10508 10504 10501 10497 10493 10489 10486 10484 10480 10474 10469 10467 10463 10456 10449 10443 10439 10433 10426 10421 10417 10412 10406 10400 10394 10388 10383 10379 10373 10366 10360 10354 10348 10343 10338 10332 10326 10319 10313 10308 10303 10297 10292 10286 10279 10273 10268 10261 10254 10249 10244 10239 10233 10227 10221 10216 10211 10206 10202 10197 10192 10188 10183 10179 10175 10172 10169 10166 10163 10159 10155 10152 10151
10542 10539 10536 10533 10530 10527 10524 10521 10518 10515 10512 10509 10506 10502 10499 10495 10491 10486 10481 10477 10473 10471 10466 10459 10455 10453 10450 10444 10437 10433 10428 10419 10412 10408 10403 10399 10393 10387 10381 10375 10370 10365 10358 10352 10345 10338 10332 10327 10321 10315 10308 10302 10296 10290 10284 10278 10272 10266 10260 10253 10247 10239 10232 10228 10223 10216 10209 10203 10197 10192 10188 10182 10178 10174 10168 10163 10159 10154 10151 10149 10146 10143 10139 10135 10132 10130
10539 10536 10533 10530 10526 10523 10520 10516 10513 10510 10506 10503 10500 10496 10493 10489 10484 10479 10473 10467 10461 10458 10456 10450 10444 10442 10442 10438 10432 10428 10423 10414 10405 10400 10395 10391 10387 10380 10374 10369 10363 10357 10351 10344 10337 10329 10323 10318 10313 10307 10300 10293 10286 10279 10273 10266 10260 10254 10247 10240 10235 10226 10218 10213 10208 10200 10193 10187 10180 10174 10169 10163 10159 10155 10149 10144 10139 10134 10131 10128 10125 10122 10118 10114 10111 10109
10534 10531 10528 10525 10522 10519 10516 10512 10509 10505 10501 10497 10493 10489 10486 10481 10477 10471 10466 10460 10452 10445 10444 10440 10434 10431 10431 10428 10423 10419 10415 10408 10399 10392 10387 10383 10378 10372 10365 10360 10355 10349 10343 10336 10328 10320 10314 10309 10304 10298 10291 10284 10277 10270 10263 10256 10249 10243 10236 10228 10223 10215 10205 10199 10193 10186 10179 10172 10164 10157 10151 10145 10141 10137 10131 10125 10119 10115 10111 10108 10105 10101 10097 10093 10090 10087
10528 10525 10522 10520 10516 10513 10510 10506 10503 10499 10495 10491 10486 10482 10478 10474 10470 10465 10461 10456 10449 10439 10433 10429 10421 10417 10420 10418 10412 10409 10405 10399 10391 10384 10379 10374 10369 10363 10356 10351 10346 10340 10334 10327 10320 10312 10305 10299 10294 10287 10281 10273 10266 10259 10251 10244 10237 10231 10224 10216 10209 10202 10193 10186 10179 10173 10166 10157 10149 10142 10135 10129 10124 10119 10114 10108 10102 10097 10093 10089 10085 10082 10077 10073 10069 10066
10524 10521 10518 10514 10511 10507 10504 10500 10497 10493 10489 10485 10480 10476 10471 10467 10463 10459 10455 10451 10447 10439 10429 10422 10411 10403 10407 10408 10401 10397 10395 10390 10383 10375 10370 10365 10360 10354 10347 10341 10336 10331 10325 10318 10311 10304 10296 10290 10283 10276 10269 10262 10254 10247 10239 10231 10223 10217 10209 10201 10194 10187 10178 10170 10163 10157 10150 10141 10134 10127 10120 10114 10108 10103 10097 10092 10087 10082 10077 10072 10067 10063 10059 10054 10049 10045
10520 10516 10513 10510 10506 10502 10498 10494 10491 10487 10483 10479 10475 10470 10466 10461 10456 10452 10449 10444 10442 10437 10427 10418 10406 10393 10397 10400 10391 10386 10385 10380 10373 10365 10360 10355 10350 10344 10337 10331 10326 10321 10315 10307 10299 10293 10286 10279 10272 10264 10258 10250 10242 10235 10227 10218 10210 10202 10195 10186 10179 10171 10162 10154 10146 10139 10131 10123 10116 10109 10102 10095 10090 10084 10080 10076 10072 10067 10062 10056 10050 10046 10041 10037 10031 10027
10515 10511 10508 10504 10500 10497 10492 10488 10484 10480 10477 10473 10469 10465 10461 10456 10451 10445 10442 10437 10434 10432 10425 10416 10401 10384 10387 10394 10384 10377 10376 10371 10364 10356 10351 10346 10339 10334 10328 10322 10317 10311 10304 10297 10288 10282 10276 10268 10261 10253 10246 10239 10231 10223 10215 10206 10197 10189 10180 10171 10164 10156 10147 10138 10129 10121 10113 10106 10099 10091 10083 10076 10069 10063 10059 10056 10054 10050 10045 10039 10033 10029 10025 10021 10016 10012
10509 10506 10502 10499 10494 10491 10486 10482 10478 10473 10470 10467 10462 10459 10454 10450 10445 10438 10434 10430 10426 10425 10421 10416 10398 10374 10376 10387 10377 10369 10370 10365 10358 10349 10342 10338 10330 10324 10320 10314 10308 10302 10295 10287 10279 10272 10266 10258 10250 10242 10234 10227 10219 10211 10203 10194 10185 10177 10167 10158 10149 10141 10133 10123 10113 10104 10096 10088 10081 10074 10066 10058 10050 10043 10038 10034 10032 10030 10026 10020 10014 10009 10006 10003 10000 9996
10504 10499 10496 10493 10488 10484 10479 10475 10471 10466 10462 10459 10455 10451 10447 10443 10438 10431 10425 10420 10417 10415 10412 10413 10399 10367 10363 10377 10368 10360 10361 10357 10350 10343 10335 10330 10322 10315 10311 10305 10300 10293 10285 10278 10271 10264 10256 10247 10239 10230 10222 10215 10206 10198 10189 10180 10172 10163 10154 10145 10136 10128 10119 10109 10098 10089 10080 10072 10064 10057 10049 10040 10032 10025 10018 10013 10009 10008 10006 10000 9993 9988 9985 9983 9980 9977
10499 10494 10490 10486 10482 10478 10473 10468 10463 10457 10453 10450 10447 10443 10439 10435 10431 10425 10417 10410 10406 10404 10400 10405 10399 10366 10352 10364 10358 10348 10350 10345 10338 10334 10328 10321 10313 10306 10301 10295 10290 10284 10275 10268 10261 10254 10246 10237 10228 10219 10210 10202 10194 10185 10176 10167 10159 10150 10142 10133 10124 10115 10106 10095 10085 10075 10066 10057 10049 10042 10034 10026 10018 10010 10002 9996 9991 9988 9986 9981 9973 9967 9965 9964 9961 9957
10494 10489 10484 10480 10476 10472 10467 10462 10456 10449 10444 10441 10437 10434 10431 10428 10424 10418 10412 10403 10396 10394 10389 10392 10393 10368 10347 10351 10347 10338 10339 10334 10325 10321 10317 10311 10303 10296 10291 10284 10277 10271 10263 10256 10249 10241 10234 10225 10216 10208 10199 10190 10182 10173 10164 10155 10146 10138 10128 10119 10109 10101 10091 10080 10071 10062 10053 10044 10036 10028 10020 10012 10004 9996 9988 9982 9976 9973 9969 9962 9954 9949 9947 9945 9941 9938
10490 10485 10478 10474 10470 10466 10462 10457 10451 10443 10437 10432 10428 10425 10423 10419 10415 10409 10403 10396 10388 10385 10380 10379 10383 10368 10346 10340 10336 10330 10330 10324 10314 10309 10306 10300 10293 10286 10280 10273 10265 10257 10249 10242 10235 10228 10220 10211 10203 10195 10187 10178 10169 10161 10152 10142 10133 10124 10115 10104 10095 10086 10077 10066 10056 10048 10040 10032 10023 10015 10006 9998 9990 9982 9974 9968 9962 9957 9952 9944 9937 9932 9930 9927 9923 9919
10485 10480 10473 10467 10462 10458 10455 10450 10444 10437 10430 10425 10420 10417 10415 10411 10406 10400 10393 10387 10381 10376 10370 10366 10368 10365 10346 10332 10326 10322 10320 10313 10304 10297 10292 10288 10282 10275 10269 10261 10253 10244 10237 10231 10223 10215 10207 10198 10190 10182 10174 10165 10156 10147 10138 10128 10118 10108 10098 10088 10078 10068 10059 10048 10038 10030 10023 10015 10006 9998 9989 9981 9973 9966 9959 9952 9946 9940 9933 9926 9920 9917 9914 9910 9905 9902
10479 10474 10469 10464 10459 10453 10448 10442 10437 10430 10424 10419 10414 10411 10408 10402 10396 10391 10384 10379 10375 10371 10363 10353 10355 10358 10342 10324 10318 10314 10309 10304 10295 10286 10279 10273 10268 10263 10258 10250 10241 10234 10227 10220 10213 10204 10195 10186 10177 10169 10160 10151 10142 10132 10122 10111 10100 10088 10078 10067 10057 10048 10039 10030 10020 10013 10006 9998 9989 9980 9971 9964 9957 9949 9942 9935 9928 9922 9915 9908 9904 9901 9897 9892 9888 9885
10473 10468 10462 10458 10455 10451 10446 10440 10435 10428 10421 10415 10409 10404 10401 10395 10388 10383 10377 10371 10368 10367 10359 10343 10343 10351 10338 10317 10310 10305 10297 10292 10286 10278 10270 10262 10256 10251 10245 10238 10231 10224 10217 10210 10202 10193 10183 10174 10165 10156 10147 10137 10126 10115 10104 10093 10083 10072 10062 10053 10043 10033 10024 10015 10006 9998 9990 9982 9974 9965 9956 9949 9942 9935 9928 9921 9913 9905 9897 9891 9888 9885 9880 9875 9871 9868
10468 10462 10456 10451 10448 10444 10439 10433 10429 10423 10416 10410 10403 10396 10392 10387 10381 10375 10369 10363 10359 10359 10355 10338 10331 10337 10330 10314 10306 10298 10289 10284 10277 10270 10263 10255 10248 10242 10234 10227 10220 10213 10205 10197 10188 10179 10170 10162 10153 10144 10134 10123 10112 10101 10090 10080 10070 10060 10050 10041 10031 10020 10009 10001 9992 9983 9974 9966 9957 9949 9941 9934 9927 9921 9914 9907 9900 9892 9884 9877 9873 9869 9864 9859 9855 9851
10465 10458 10451 10445 10441 10437 10432 10427 10421 10416 10409 10404 10399 10392 10385 10379 10373 10366 10359 10354 10348 10346 10346 10336 10322 10316 10312 10305 10299 10289 10281 10276 10269 10262 10255 10247 10241 10234 10225 10217 10209 10201 10193 10183 10174 10166 10159 10151 10142 10132 10122 10110 10099 10089 10079 10068 10057 10046 10035 10025 10016 10006 9996 9987 9978 9970 9960 9951 9943 9935 9927 9919 9913 9906 9899 9893 9886 9879 9871 9864 9858 9853 9848 9843 9839 9835
10464 10456 10449 10441 10436 10431 10427 10422 10417 10410 10403 10397 10391 10386 10380 10372 10365 10358 10350 10344 10339 10334 10331 10327 10317 10304 10294 10290 10286 10276 10267 10263 10258 10251 10244 10236 10229 10222 10213 10205 10198 10189 10181 10172 10164 10156 10148 10139 10129 10119 10108 10097 10086 10076 10065 10055 10044 10033 10022 10011 10002 9992 9982 9972 9964 9955 9946 9937 9928 9921 9913 9905 9898 9891 9885 9878 9871 9864 9858 9851 9844 9839 9834 9829 9825 9821
10464 10457 10449 10441 10434 10427 10421 10415 10411 10406 10398 10391 10384 10378 10373 10366 10357 10351 10343 10336 10332 10326 10319 10313 10309 10299 10286 10278 10273 10263 10254 10249 10245 10239 10233 10224 10216 10208 10201 10194 10186 10178 10169 10161 10154 10146 10136 10126 10115 10105 10095 10084 10074 10063 10052 10042 10031 10019 10008 9997 9987 9977 9966 9956 9947 9939 9931 9922 9913 9906 9898 9890 9883 9876 9869 9862 9856 9850 9843 9837 9831 9825 9820 9815 9811 9807
10462 10456 10449 10441 10433 10426 10418 10411 10405 10401 10394 10388 10382 10373 10366 10360 10351 10342 10334 10328 10324 10320 10312 10303 10298 10293 10283 10273 10264 10254 10244 10238 10233 10227 10222 10214 10205 10196 10190 10182 10175 10167 10160 10152 10143 10134 10124 10114 10104 10094 10084 10073 10062 10051 10038 10027 10015 10003 9992 9982 9972 9961 9951 9941 9931 9923 9915 9907 9900 9892 9884 9877 9869 9862 9854 9848 9841 9835 9829 9823 9817 9812 9807 9803 9798 9794
10458 10453 10447 10441 10432 10425 10419 10411 10403 10398 10392 10384 10378 10371 10362 10354 10347 10337 10327 10320 10316 10311 10305 10297 10289 10284 10277 10269 10260 10249 10237 10228 10221 10216 10211 10204 10195 10186 10179 10172 10164 10157 10149 10140 10131 10122 10112 10103 10093 10084 10073 10061 10049 10036 10023 10010 10000 9989 9978 9968 9958 9948 9938 9928 9918 9909 9901 9893 9886 9878 9871 9863 9856 9848 9841 9834 9828 9822 9815 9810 9804 9799 9794 9789 9785 9781
10453 10449 10444 10438 10431 10423 10416 10409 10401 10395 10390 10382 10373 10367 10360 10352 10345 10336 10324 10314 10308 10301 10295 10289 10282 10275 10268 10260 10253 10245 10233 10223 10215 10208 10201 10194 10186 10178 10170 10162 10154 10146 10137 10127 10118 10108 10099 10090 10081 10070 10059 10046 10033 10020 10008 9995 9984 9974 9964 9954 9945 9934 9925 9915 9905 9896 9887 9879 9871 9864 9856 9849 9842 9835 9828 9821 9815 9809 9802 9797 9791 9786 9781 9776 9772 9767
10448 10443 10438 10434 10428 10420 10412 10405 10397 10389 10385 10379 10371 10363 10356 10348 10341 10332 10320 10310 10302 10294 10286 10279 10272 10265 10258 10251 10244 10236 10226 10215 10206 10198 10191 10183 10176 10169 10160 10152 10143 10133 10124 10115 10105 10096 10087 10078 10068 10056 10043 10030 10018 10006 9994 9981 9969 9958 9948 9939 9930 9920 9911 9902 9892 9883 9874 9865 9857 9849 9841 9834 9827 9821 9814 9808 9802 9795 9789 9783 9778 9772 9767 9763 9758 9753
10443 10438 10432 10427 10423 10417 10409 10402 10395 10385 10377 10371 10364 10356 10349 10342 10335 10329 10317 10306 10298 10291 10281 10273 10265 10257 10250 10243 10235 10226 10216 10205 10195 10189 10182 10173 10164 10156 10147 10138 10130 10121 10113 10105 10095 10086 10076 10066 10055 10043 10029 10017 10004 9991 9979 9967 9955 9944 9933 9924 9915 9906 9897 9888 9880 9871 9862 9854 9846 9837 9829 9822 9814 9807 9801 9794 9788 9782 9776 9770 9765 9759 9755 9750 9745 9740
10437 10431 10426 10420 10415 10411 10405 10397 10391 10382 10373 10366 10359 10352 10345 10338 10332 10326 10317 10304 10294 10287 10279 10270 10262 10252 10243 10235 10227 10219 10210 10198 10186 10178 10171 10162 10151 10141 10133 10125 10118 10110 10102 10093 10083 10073 10062 10051 10039 10027 10014 10001 9988 9977 9966 9955 9944 9933 9922 9911 9902 9893 9884 9876 9867 9859 9851 9843 9835 9827 9819 9811 9803 9796 9789 9782 9775 9769 9763 9758 9752 9747 9742 9737 9732 9728
10430 10424 10419 10414 10408 10404 10399 10393 10386 10379 10371 10364 10357 10349 10342 10334 10325 10319 10313 10301 10290 10281 10272 10264 10256 10246 10237 10229 10221 10214 10206 10194 10180 10168 10159 10150 10140 10130 10121 10112 10105 10096 10087 10078 10068 10056 10045 10033 10022 10010 9998 9986 9975 9965 9954 9944 9933 9922 9911 9901 9891 9882 9873 9864 9855 9847 9839 9831 9823 9815 9808 9800 9793 9786 9778 9771 9764 9758 9752 9747 9741 9736 9731 9725 9721 9716
10425 10418 10412 10407 10401 10396 10392 10386 10381 10375 10367 10359 10352 10344 10335 10327 10319 10311 10304 10295 10285 10275 10264 10255 10246 10238 10230 10222 10214 10206 10199 10190 10178 10164 10153 10144 10134 10124 10114 10103 10092 10082 10073 10063 10054 10043 10032 10021 10010 9998 9986 9976 9965 9954 9943 9933 9922 9912 9901 9892 9882 9873 9864 9854 9845 9836 9827 9819 9811 9804 9796 9789 9782 9774 9767 9761 9754 9748 9742 9736 9731 9725 9719 9714 9710 9705
10421 10415 10408 10401 10395 10389 10384 10378 10370 10364 10358 10351 10344 10335 10328 10320 10312 10304 10297 10287 10277 10267 10257 10247 10238 10229 10220 10211 10203 10194 10187 10181 10173 10162 10150 10140 10128 10117 10107 10096 10085 10074 10063 10052 10041 10032 10022 10012 10001 9990 9979 9968 9957 9946 9935 9925 9914 9904 9893 9883 9873 9864 9855 9846 9836 9827 9818 9810 9801 9793 9786 9778 9771 9764 9757 9750 9744 9738 9732 9726 9720 9714 9709 9704 9699 9694
10418 10411 10404 10398 10391 10383 10378 10373 10364 10355 10348 10343 10336 10328 10320 10312 10303 10294 10287 10279 10269 10259 10250 10240 10230 10220 10210 10201 10192 10183 10174 10167 10161 10153 10143 10131 10119 10107 10097 10087 10077 10067 10056 10045 10034 10024 10013 10004 9994 9984 9973 9961 9949 9938 9927 9916 9906 9895 9885 9875 9865 9855 9846 9836 9827 9818 9809 9801 9792 9784 9777 9769 9761 9754 9747 9740 9734 9728 9722 9716 9710 9704 9699 9694 9689 9684
10415 10408 10399 10393 10387 10378 10371 10366 10361 10352 10343 10336 10329 10321 10313 10304 10295 10285 10277 10270 10261 10252 10242 10231 10220 10210 10200 10191 10182 10173 10165 10156 10148 10139 10130 10119 10109 10098 10087 10076 10065 10055 10046 10036 10026 10017 10006 9996 9986 9975 9963 9952 9940 9928 9918 9908 9898 9887 9877 9867 9857 9846 9837 9827 9818 9809 9800 9792 9784 9776 9768 9760 9752 9745 9738 9731 9725 9719 9713 9706 9700 9695 9690 9684 9679 9674
10408 10403 10394 10386 10380 10373 10364 10358 10353 10347 10340 10331 10322 10314 10304 10295 10287 10278 10268 10260 10251 10241 10231 10221 10210 10201 10191 10183 10174 10166 10157 10147 10137 10128 10118 10109 10098 10088 10077 10067 10056 10046 10036 10027 10017 10008 9998 9987 9977 9965 9953 9942 9931 9920 9909 9900 9890 9879 9868 9858 9848 9839 9829 9819 9810 9801 9793 9784 9776 9768 9760 9752 9745 9737 9730 9723 9716 9710 9704 9698 9692 9686 9680 9674 9669 9665
10400 10395 10388 10379 10372 10365 10357 10349 10341 10335 10330 10323 10314 10305 10296 10287 10279 10271 10261 10252 10242 10231 10222 10213 10203 10195 10186 10177 10168 10159 10149 10139 10129 10119 10109 10099 10088 10078 10068 10059 10049 10039 10029 10019 10010 10000 9990 9979 9967 9956 9945 9934 9923 9913 9902 9891 9881 9871 9860 9851 9841 9831 9822 9812 9803 9794 9786 9777 9769 9761 9754 9746 9738 9730 9723 9716 9709 9703 9697 9690 9684 9678 9672 9665 9660 9656
10395 10388 10381 10373 10365 10357 10348 10340 10331 10321 10315 10311 10305 10296 10287 10279 10270 10262 10253 10244 10234 10223 10214 10205 10197 10188 10179 10170 10161 10152 10142 10132 10122 10111 10101 10090 10080 10070 10060 10051 10041 10032 10022 10011 10002 9992 9982 9970 9959 9948 9938 9927 9916 9905 9894 9884 9873 9863 9853 9843 9833 9824 9814 9805 9796 9787 9779 9770 9762 9755 9747 9740 9732 9724 9717 9709 9702 9696 9689 9683 9677 9671 9665 9658 9653 9648
10390 10383 10376 10367 10359 10351 10342 10334 10326 10316 10306 10301 10296 10289 10280 10271 10262 10253 10243 10233 10224 10215 10206 10198 10189 10180 10171 10163 10154 10145 10135 10125 10114 10104 10093 10084 10074 10064 10053 10043 10033 10024 10014 10004 9994 9984 9973 9962 9952 9941 9930 9920 9908 9897 9887 9877 9866 9855 9845 9836 9826 9816 9807 9798 9789 9781 9773 9764 9756 9748 9741 9734 9726 9718 9711 9703 9696 9689 9682 9676 9670 9664 9657 9651 9645 9641
10385 10379 10372 10364 10356 10349 10341 10331 10324 10315 10304 10296 10288 10280 10273 10265 10255 10245 10236 10226 10218 10210 10201 10192 10183 10173 10164 10156 10147 10137 10127 10117 10107 10097 10087 10078 10067 10056 10046 10036 10026 10016 10006 9996 9986 9976 9965 9955 9944 9933 9922 9911 9900 9890 9879 9869 9859 9849 9838 9829 9820 9810 9801 9792 9783 9775 9766 9759 9750 9742 9735 9727 9720 9713 9706 9699 9691 9684 9676 9670 9663 9657 9651 9644 9638 9633
10380 10373 10367 10359 10350 10344 10338 10329 10320 10311 10302 10294 10285 10276 10266 10258 10249 10240 10231 10222 10213 10205 10196 10186 10177 10168 10158 10149 10139 10130 10120 10110 10100 10090 10080 10070 10060 10050 10039 10029 10019 10010 10000 9990 9980 9970 9959 9948 9937 9926 9914 9903 9893 9882 9872 9862 9852 9842 9832 9822 9813 9804 9795 9786 9777 9768 9760 9752 9745 9736 9729 9721 9714 9707 9701 9694 9687 9680 9672 9665 9658 9652 9645 9638 9632 9627
10374 10367 10361 10355 10345 10336 10331 10325 10316 10306 10296 10289 10282 10273 10263 10254 10246 10237 10228 10218 10208 10199 10190 10181 10171 10162 10151 10142 10132 10122 10113 10103 10093 10083 10073 10064 10054 10043 10033 10023 10013 10003 9993 9983 9974 9964 9953 9942 9931 9919 9908 9897 9887 9876 9866 9855 9845 9835 9825 9815 9806 9797 9789 9780 9771 9762 9754 9746 9738 9731 9723 9715 9708 9701 9695 9689 9682 9675 9668 9660 9653 9647 9641 9633 9626 9620
10367 10360 10354 10349 10341 10330 10323 10317 10311 10303 10292 10282 10275 10268 10259 10250 10242 10233 10223 10213 10203 10193 10184 10174 10164 10154 10144 10134 10125 10115 10106 10096 10086 10076 10067 10057 10047 10037 10026 10016 10006 9996 9986 9977 9967 9957 9947 9936 9925 9914 9903 9892 9881 9870 9860 9849 9839 9829 9819 9809 9800 9791 9782 9774 9765 9757 9748 9740 9733 9725 9718 9710 9703 9696 9689 9683 9677 9672 9665 9657 9648 9640 9635 9629 9622 9614
10360 10353 10346 10341 10335 10325 10316 10309 10303 10297 10289 10279 10271 10262 10253 10244 10235 10226 10217 10207 10197 10187 10177 10167 10156 10147 10137 10127 10118 10108 10099 10089 10079 10069 10060 10050 10040 10030 10020 10009 9999 9990 9980 9970 9960 9950 9940 9930 9919 9908 9897 9886 9875 9864 9854 9843 9833 9823 9813 9804 9794 9785 9776 9768 9759 9751 9744 9735 9728 9720 9713 9705 9699 9692 9685 9678 9672 9666 9661 9656 9648 9638 9629 9623 9617 9610
10352 10346 10339 10334 10328 10319 10311 10304 10296 10289 10282 10274 10264 10255 10246 10236 10227 10219 10209 10200 10190 10180 10169 10159 10148 10139 10129 10120 10111 10101 10091 10082 10072 10062 10052 10042 10033 10023 10013 10003 9993 9984 9974 9963 9953 9944 9934 9923 9912 9901 9890 9879 9868 9858 9849 9839 9829 9819 9809 9799 9789 9780 9771 9762 9753 9745 9738 9731 9723 9715 9708 9700 9693 9686 9680 9673 9667 9660 9654 9650 9646 9639 9630 9621 9612 9605